sat.trackr.live / text

‹ back to catalog

DONGPO 08

NORAD 54686 · 2022-167E

PAYLOAD ACTIVE UNKNOWN

§ Identity

Operator
Country
PRC
Launch date
2022-12-09
Launch site
SEAL
Launch vehicle
Mass (kg)
RCS (m²)

External: N2YO · Heavens-Above · Gunter

§ Orbital elements

Epoch: 2026-09-20T22:09:02.569824Z

Period
93.79 min
Inclination
97.6943°
Eccentricity
0.0007872
Mean motion
15.35269888 rev/d
Perigee alt
454.7 km
Apogee alt
465.5 km
Semi-major
6,838.3 km
B*
2.0772e-4
RAAN
76.1120°
Arg perigee
178.6348°
Mean anomaly
181.4918°
Rev number
21,000

§ Raw data

DONGPO 081 54686U 22167E   26263.92294641  .00007033  00000+0  20772-3 0  99962 54686  97.6943  76.1120 0007872 178.6348 181.4918 15.35269888210007

JSON: /api/v1/satellites/54686 · /tle

For live sub-satellite position, see the globe view (requires WebGL).

§ Visibility from observer

Set your observer location to see the next 7 days of passes ≥ 10°. The values pass through the URL so the page stays shareable.

No JS? Fill the form by hand. The geolocation button needs JavaScript.

§ Radio — SatNOGS DB

ModeDescriptionDownlinkUplink
FM Jillin Mysterious Pip 1.616 GHz

1 transmitter · refreshed weekly from db.satnogs.org